sat.trackr.live / text

‹ back to catalog

TISAT 1

NORAD 36799 · 2010-035E

PAYLOAD ACTIVE UNKNOWN

§ Identity

Operator
Country
SWTZ
Launch date
2010-07-12
Launch site
SRILR
Launch vehicle
Mass (kg)
RCS (m²)
0.05

Purposes: tech_demo

External: N2YO · Heavens-Above · Gunter

§ Orbital elements

Epoch: 2026-05-25T02:44:54.019104Z

Period
94.08 min
Inclination
98.0696°
Eccentricity
0.0002197
Mean motion
15.30693269 rev/d
Perigee alt
472.2 km
Apogee alt
475.2 km
Semi-major
6,851.9 km
B*
6.4646e-4
RAAN
89.6355°
Arg perigee
31.2848°
Mean anomaly
328.8521°
Rev number
86,417

§ Raw data

TISAT 11 36799U 10035E   26145.11451411  .00019122  00000+0  64646-3 0  99922 36799  98.0696  89.6355 0002197  31.2848 328.8521 15.30693269864174

JSON: /api/v1/satellites/36799 · /tle

For live sub-satellite position, see the globe view (requires WebGL).

§ Visibility from observer

Set your observer location to see the next 7 days of passes ≥ 10°. The values pass through the URL so the page stays shareable.

No JS? Fill the form by hand. The geolocation button needs JavaScript.

§ Radio — SatNOGS DB

ModeDescriptionDownlinkUplink
CW CW TLM 19wpm 437.305 MHz
FM DOWN: CW in FM, UP: DTMF commands 145.980 MHz 145.980 MHz

2 transmitters · refreshed weekly from db.satnogs.org